Location: Freemans Gardens
(41.6414°N, 83.6077°W)
Time: 21:49:24
(UTC+00:00)

SAR-Lupe-1 - Pass Details

Date: 29 October 2020
Orbit: 480 x 485 km, 98.2° (Epoch: 22 November)

Event Time Altitude Azimuth Distance (km) Brightness Sun altitude
Rises 23:40:23 0° 11° (N) 2,553 7.5 -13.3°
Reaches altitude 10° 23:42:28 10° 9° (N) 1,669 6.6 -13.7°
Maximum altitude 23:46:02 73° 285° (WNW) 510 4.3 -14.3°
Drops below altitude 10° 23:49:35 10° 201° (SSW) 1,657 7.1 -15.0°
Sets 23:51:38 0° 199° (SSW) 2,533 8.0 -15.4°
